Voltar ao catálogo

CYGFM01

AtivoMeteoVLEO
NORAD 41887·PAYLOAD·🇺🇸 United States

Lançado Dec 15, 2016 de Cape Canaveral Space Force Station

Loading…

Próximas Passagens (próximas 24 horas)

TLE

AtualizadoSource: Space-Track

Época: Sep 14, 2026, 14:31 UTC

1 41887U 16078D   26257.60523751  .00025819  00000-0  29213-3 0  9996
2 41887  34.9401  27.0222 0005236 283.7403  76.2739 15.61397311542674

Acompanhe CYGFM01 em tempo real com AllMySat

Download on the App Store